TimeCST,TemperatureF,Dew PointF,Humidity,Sea Level PressureIn,VisibilityMPH,Wind Direction,Wind SpeedMPH,Gust SpeedMPH,PrecipitationIn,Events,Conditions,WindDirDegrees,DateUTC
12:15 AM,22.1,11.1,63,30.32,10.0,NNW,13.8,-,N/A,,Overcast,340,2013-12-06 06:15:00
12:35 AM,21.7,10.6,62,30.32,10.0,NNW,12.7,-,N/A,,Overcast,330,2013-12-06 06:35:00
12:55 AM,21.7,10.9,63,30.33,10.0,NNW,13.8,-,N/A,,Overcast,330,2013-12-06 06:55:00
1:15 AM,21.7,11.5,65,30.32,10.0,NNW,9.2,-,N/A,,Overcast,330,2013-12-06 07:15:00
1:35 AM,21.7,11.7,65,30.32,10.0,NNW,11.5,-,N/A,,Overcast,340,2013-12-06 07:35:00
1:55 AM,21.6,11.8,66,30.34,10.0,NW,11.5,-,N/A,,Overcast,320,2013-12-06 07:55:00
2:15 AM,21.2,11.5,66,30.32,10.0,NNW,11.5,-,N/A,,Overcast,340,2013-12-06 08:15:00
2:35 AM,21.0,11.3,66,30.33,10.0,NNW,13.8,-,N/A,,Overcast,330,2013-12-06 08:35:00
2:55 AM,20.5,11.3,68,30.34,10.0,NNW,13.8,-,N/A,,Overcast,330,2013-12-06 08:55:00
3:15 AM,20.3,11.3,68,30.34,10.0,NNW,13.8,-,N/A,,Overcast,330,2013-12-06 09:15:00
3:35 AM,20.3,11.3,68,30.34,10.0,NNW,15.0,-,N/A,,Overcast,330,2013-12-06 09:35:00
3:55 AM,20.3,10.9,67,30.34,10.0,NNW,13.8,-,N/A,,Overcast,340,2013-12-06 09:55:00
4:15 AM,19.9,10.2,66,30.33,10.0,NNW,12.7,-,N/A,,Overcast,340,2013-12-06 10:15:00
4:35 AM,19.9,10.0,65,30.33,10.0,NNW,15.0,-,N/A,,Overcast,340,2013-12-06 10:35:00
4:55 AM,19.9,10.2,66,30.34,10.0,NNW,11.5,-,N/A,,Overcast,340,2013-12-06 10:55:00
5:15 AM,19.9,10.2,66,30.35,10.0,NW,13.8,-,N/A,,Overcast,320,2013-12-06 11:15:00
5:35 AM,19.4,10.0,67,30.37,10.0,NW,11.5,-,N/A,,Overcast,320,2013-12-06 11:35:00
5:55 AM,19.4,9.3,65,30.36,10.0,North,12.7,16.1,N/A,,Overcast,350,2013-12-06 11:55:00
6:15 AM,19.4,9.5,65,30.35,10.0,North,11.5,-,N/A,,Scattered Clouds,350,2013-12-06 12:15:00
6:35 AM,19.0,9.3,66,30.36,10.0,NNW,11.5,-,N/A,,Mostly Cloudy,330,2013-12-06 12:35:00
6:55 AM,19.0,9.3,66,30.38,10.0,NNW,13.8,-,N/A,,Overcast,330,2013-12-06 12:55:00
7:15 AM,18.5,8.8,66,30.39,10.0,NNW,10.4,-,N/A,,Overcast,340,2013-12-06 13:15:00
7:35 AM,18.1,8.2,65,30.39,10.0,North,12.7,-,N/A,,Overcast,350,2013-12-06 13:35:00
7:55 AM,18.0,8.4,66,30.40,10.0,North,11.5,-,N/A,,Overcast,350,2013-12-06 13:55:00
8:15 AM,17.6,8.1,66,30.41,10.0,NNW,9.2,18.4,N/A,,Overcast,340,2013-12-06 14:15:00
8:35 AM,17.6,8.6,68,30.43,10.0,NNW,12.7,-,N/A,,Overcast,330,2013-12-06 14:35:00
8:55 AM,17.6,8.2,67,30.41,10.0,NNW,13.8,-,N/A,,Overcast,330,2013-12-06 14:55:00
9:15 AM,17.4,7.5,65,30.40,10.0,North,12.7,-,N/A,,Mostly Cloudy,350,2013-12-06 15:15:00
9:35 AM,17.8,7.7,65,30.45,10.0,NNW,11.5,16.1,N/A,,Scattered Clouds,330,2013-12-06 15:35:00
9:55 AM,17.4,7.2,64,30.43,10.0,North,9.2,-,N/A,,Scattered Clouds,350,2013-12-06 15:55:00
10:15 AM,17.6,6.8,63,30.43,10.0,NNW,11.5,-,N/A,,Clear,340,2013-12-06 16:15:00
10:35 AM,17.2,5.9,61,30.41,10.0,NNW,12.7,16.1,N/A,,Clear,340,2013-12-06 16:35:00
10:55 AM,17.2,5.9,61,30.44,10.0,NNW,12.7,-,N/A,,Scattered Clouds,330,2013-12-06 16:55:00
11:15 AM,17.4,6.1,61,30.42,10.0,NNW,10.4,-,N/A,,Mostly Cloudy,330,2013-12-06 17:15:00
11:35 AM,17.6,6.4,62,30.43,10.0,NNW,9.2,-,N/A,,Scattered Clouds,340,2013-12-06 17:35:00
11:55 AM,17.6,6.4,62,30.43,10.0,NNW,11.5,-,N/A,,Mostly Cloudy,330,2013-12-06 17:55:00
12:15 PM,17.6,6.3,61,30.43,10.0,NNW,8.1,-,N/A,,Overcast,330,2013-12-06 18:15:00
12:35 PM,17.6,5.5,59,30.44,10.0,North,10.4,17.3,N/A,,Overcast,350,2013-12-06 18:35:00
12:55 PM,17.4,4.5,57,30.40,10.0,North,11.5,-,N/A,,Overcast,350,2013-12-06 18:55:00
1:15 PM,17.6,4.6,57,30.42,10.0,NNW,12.7,-,N/A,,Overcast,330,2013-12-06 19:15:00
1:35 PM,17.8,4.3,56,30.42,10.0,NNW,13.8,-,N/A,,Overcast,340,2013-12-06 19:35:00
1:55 PM,18.5,5.0,56,30.42,10.0,North,11.5,-,N/A,,Overcast,350,2013-12-06 19:55:00
2:15 PM,18.5,4.1,54,30.41,10.0,NNW,12.7,-,N/A,,Overcast,340,2013-12-06 20:15:00
2:35 PM,18.5,4.1,54,30.42,10.0,NW,15.0,-,N/A,,Overcast,320,2013-12-06 20:35:00
2:55 PM,19.2,4.5,53,30.43,10.0,NNW,12.7,-,N/A,,Overcast,330,2013-12-06 20:55:00
3:15 PM,19.2,3.7,51,30.44,10.0,NNW,8.1,17.3,N/A,,Overcast,340,2013-12-06 21:15:00
3:35 PM,19.2,3.6,51,30.44,10.0,NNW,13.8,-,N/A,,Overcast,340,2013-12-06 21:35:00
3:55 PM,19.0,3.0,50,30.45,10.0,NNW,10.4,-,N/A,,Overcast,340,2013-12-06 21:55:00
4:15 PM,19.0,2.8,49,30.46,10.0,NNW,10.4,-,N/A,,Overcast,330,2013-12-06 22:15:00
4:35 PM,18.5,2.3,49,30.47,10.0,NNW,11.5,-,N/A,,Overcast,330,2013-12-06 22:35:00
5:55 PM,18.0,3.6,53,30.49,10.0,NNW,10.4,-,N/A,,Mostly Cloudy,330,2013-12-06 23:55:00
6:15 PM,17.6,3.9,55,30.50,10.0,NW,6.9,-,N/A,,Scattered Clouds,320,2013-12-07 00:15:00
6:35 PM,17.6,3.7,55,30.50,10.0,NW,6.9,-,N/A,,Scattered Clouds,320,2013-12-07 00:35:00
6:55 PM,17.1,3.6,56,30.51,10.0,NNW,10.4,-,N/A,,Clear,330,2013-12-07 00:55:00
7:15 PM,16.7,3.2,55,30.52,10.0,NNW,8.1,-,N/A,,Scattered Clouds,330,2013-12-07 01:15:00
7:35 PM,16.2,3.9,59,30.53,10.0,NNW,8.1,-,N/A,,Scattered Clouds,330,2013-12-07 01:35:00
7:55 PM,16.2,3.4,57,30.53,10.0,NNW,9.2,-,N/A,,Clear,330,2013-12-07 01:55:00
8:15 PM,16.2,3.4,57,30.54,10.0,NNW,8.1,-,N/A,,Clear,330,2013-12-07 02:15:00
8:35 PM,15.8,3.4,58,30.55,10.0,NNW,11.5,-,N/A,,Scattered Clouds,330,2013-12-07 02:35:00
8:55 PM,15.6,4.1,60,30.56,10.0,NNW,9.2,-,N/A,,Scattered Clouds,340,2013-12-07 02:55:00
9:15 PM,14.9,4.3,63,30.57,10.0,NNW,8.1,-,N/A,,Clear,330,2013-12-07 03:15:00
9:35 PM,14.7,4.6,64,30.57,10.0,NNW,9.2,-,N/A,,Clear,330,2013-12-07 03:35:00
9:55 PM,14.0,5.0,67,30.58,10.0,NNW,9.2,-,N/A,,Clear,330,2013-12-07 03:55:00
10:15 PM,14.0,5.0,67,30.59,10.0,NNW,13.8,-,N/A,,Scattered Clouds,330,2013-12-07 04:15:00
10:35 PM,13.6,5.0,68,30.60,10.0,NNW,8.1,-,N/A,,Scattered Clouds,330,2013-12-07 04:35:00
10:55 PM,13.5,5.0,69,30.61,10.0,NNW,10.4,-,N/A,,Clear,330,2013-12-07 04:55:00
11:15 PM,13.1,5.0,70,30.61,10.0,NNW,8.1,-,N/A,,Clear,330,2013-12-07 05:15:00
11:35 PM,13.1,5.0,70,30.62,10.0,NNW,10.4,-,N/A,,Clear,330,2013-12-07 05:35:00
11:55 PM,12.9,5.0,71,30.62,10.0,NNW,8.1,-,N/A,,Clear,340,2013-12-07 05:55:00